www.pogodaiklimat.ru

Погода и климат >> Архив погоды >> Украина >> Яворов


ПОГОДА в Яворове

  • Прогноз погоды в Яворове
  • Монитор погоды в Яворове

АРХИВ ПОГОДЫ в Яворове

Время (UTC), дата Ветер
(напр.,м/с)
 
Видим.   Явления Облачность Т
(С)
Тd
(С)
f
(%)
Тe
(С)
Тes
(С)
Комфортность P
(гПа)
Po
(гПа)
Тmin
(С)
Tmax
(С)
R
(мм)
R24
(мм)
S
(см)
21 10.06 В 1 20 км ясно +20.7 +17.3 81 +25 +25 комфорт 1017.0 990.3
00 11.06 В 2 10 км ясно +20.0 +17.1 83 +23 +23 комфорт 1016.4 989.6
03 11.06 ЮВ 1 13 км ясно +18.6 +16.6 88 +21 +21 комфорт 1016.5 989.6
06 11.06 ЮВ 2 18 км 3/0 2000 м
[Ac trans]
+23.5 +17.4 69 +27 +33 душно 1017.0 990.5 +18.5
09 11.06 ЮВ 4 50 км 1/1 1000 м
[Cu hum]
+28.3 +16.5 49 +32 +42 душно 1016.1 990.1
12 11.06 ЮВ 5 50 км 3/3 1000 м
[Cu med, cong]
+30.3 +12.5 34 +31 +37 жарко 1014.9 989.1
15 11.06 ЮВ 4 50 км 3/1 1000 м
[Cu hum Ac trans]
+29.7 +13.2 36 +31 +34 жарко 1014.5 988.6
18 11.06 Ю 2 50 км 6/3 1000 м
[Cu med, cong Ci fib]
+25.1 +16.7 60 +29 +29 душно 1015.3 989.0 +30.5
21 11.06 В 2 20 км ясно +20.7 +17.0 79 +25 +25 комфорт 1015.9 989.2
00 12.06 В 2 10 км ясно +19.1 +15.2 78 +21 +21 комфорт 1016.2 989.3
06 12.06 ЮВ 3 19 км 4/0
[Ci fib]
+23.0 +17.2 70 +28 +33 душно 1015.7 989.2 +17.5
09 12.06 ЮВ 4 35 км 3/0
[Cs]
+27.9 +16.6 50 +31 +42 душно 1015.0 989.0
12 12.06 В 4 50 км 3/3 1000 м
[Cu hum]
+30.2 +15.8 42 +33 +41 душно 1014.0 988.2
15 12.06 Ю 2 50 км 9/3 1000 м
[Cb calv Ci ing]
+28.3 +17.5 52 +32 +36 душно 1013.5 987.5
18 12.06 Ю 2 50 км 5/0
[Ci fib]
+24.7 +16.6 61 +28 +28 душно 1014.1 987.8 +30.5
21 12.06 ЮЗ 1 20 км ясно +19.6 +14.7 73 +23 +23 комфорт 1015.2 988.4
03 13.06 В 2 10 км ясно +17.2 +15.3 89 +18 +18 1015.6 988.6
06 13.06 ЮВ 3 19 км ясно +22.8 +16.8 69 +28 +33 душно 1015.5 989.0 +17.0
09 13.06 ЮВ 3 50 км 1/1 1000 м
[Cu hum]
+28.0 +17.5 53 +32 +44 душно 1015.5 989.4
12 13.06 ЮВ 4 50 км 3/3 1000 м
[Cu hum]
+30.2 +15.2 40 +33 +40 душно 1015.0 989.1
15 13.06 ЮВ 4 50 км 1/1 1000 м
[Cu hum]
+30.4 +14.4 38 +32 +36 жарко 1014.1 988.3
18 13.06 ЮВ 2 50 км ясно +26.6 +18.2 60 +31 +31 душно 1014.4 988.3 +30.8
21 13.06 ЮВ 3 20 км 3/0
[Ci fib]
+22.6 +16.9 70 +27 +27 душно 1015.8 989.3
00 14.06 ЮВ 2 20 км ясно +20.4 +15.7 74 +24 +24 комфорт 1016.2 989.5
06 14.06 ЮВ 1 50 км ясно +23.2 +17.8 72 +29 +36 душно 1017.1 990.6 +18.7
12 14.06 З 1 50 км 4/3 1000 м
[Cu med, cong Ci fib]
+31.5 +19.9 50 +38 +50 очень
душно
1016.7 990.9
15 14.06 С 1 50 км гроза без осадков 8/8 600 м
[Cb cap]
+27.4 +21.1 69 +35 +36 очень
душно
1017.0 990.9
18 14.06 В 2 50 км {гроза} 9/4 600 м
[Cb cap Cs]
+25.9 +18.0 62 +30 +30 душно 1018.0 991.7 +32.1
00 15.06 В 1 20 км {гроза} 3/0
[Cs]
+19.3 +16.3 83 +22 +22 комфорт 1018.0 991.1
06 15.06 ЮВ 1 10 км ясно +23.2 +16.9 68 +28 +36 душно 1016.9 990.4 +16.3
12 15.06 В 3 50 км 3/1 1000 м
[Cu hum Ci fib]
+31.5 +13.5 33 +33 +44 жарко 1014.2 988.5
18 15.06 ЮВ 2 50 км ясно +28.1 +16.8 50 +32 +32 душно 1012.5 986.5 +31.9
00 16.06 В 2 20 км ясно +21.2 +17.5 79 +25 +25 комфорт 1013.0 986.4
06 16.06 З 3 22 км 9/0
[Cs]
+23.8 +18.1 70 +28 +32 душно 1012.8 986.5 +19.2
12 16.06 СЗ 2 50 км 9/4 1000 м
[Cu hum Cs]
+30.3 +21.1 58 +38 +46 очень
душно
1012.3 986.5
18 16.06 С 1 35 км {гроза} 9/4 1000 м
[Cb cap Ac trans Cs]
+25.3 +19.8 72 +31 +31 очень
душно
1013.5 987.3 +31.8
00 17.06 ЮЗ 5 10 км {гроза, ливн. осадки} 10/10 600 м
[Cb cap]
+17.2 +15.7 91 +17 +17 1016.2 989.2
06 17.06 ЮЗ 2 13 км слаб. ливневой дождь {гроза} 9/9 600 м
[Cb cap]
+17.6 +16.3 92 +18 +19 1018.7 991.6 +16.7 26
12 17.06 СЗ 2 50 км {гроза, ливн. осадки} 8/6 600 м
[Cb cap Ac trans]
+23.1 +16.2 65 +28 +32 душно 1018.7 992.1

 

Местоположение метеостанции Яворов (Львовская область, Украина): широта 49.93 долгота 23.38 высота над уровнем моря 229 м.

В архиве по умолчанию представлена погода в Яворове за последнюю неделю. Архивные данные за месяц целиком и за предыдущие месяцы, начиная с января 2011 года, Вы можете получить, выбрав интересующий диапазон дат из раскрывающегося списка и нажав кнопку "Ввод!".


*Определитесь, кто Вы:
робот инопланетянин человек

Внимание! Время в таблицах - всемирное. Для получения местного времени необходимо прибавить поправку, которая равна 2 ч.

Смотрите также архив погоды в соседних городах и на ближайших метеорологических станциях:

Погода в Мостиске (Львовская область, Украина) (22 км)
Погода в Раве-Русской (Львовская область, Украина) (40 км)
Погода в Львове (Львовская область, Украина) (43 км)
Погода в Пшемысле (Польша) (47 км)
Погода в Дрогобыче (Львовская область, Украина) (65 км)
Погода в Каменке-Бугской (Львовская область, Украина) (72 км)
Погода в Стрые (Львовская область, Украина) (81 км)
Погода в Замостье (Польша) (86 км)
Погода в Леско (Польша) (90 км)
Погода в Межгорье (Закарпатская область, Украина) (90 км)

Пояснения к столбцам:

Ветер - указаны скорость ветра в м/с - средняя за 10 мин, порывы в срок и между сроками (в фигурных скобках) и направление, откуда дует ветер: С - северный, СВ - северо-восточный, В - восточный, ЮВ - юго-восточный, Ю - южный, ЮЗ - юго-западный, З - западный, СЗ - северо-западный.
Видимость - горизонтальная дальность видимости в метрах или километрах. При видимости от 1 до 10 км при отсутствии осадков обычно наблюдается дымка, при ухудшении видимости до 1 км и менее - туман. В сухую погоду видимость может ухудшаться дымом, пылью или мглою.
Явления - указаны атмосферные явления, наблюдавшиеся в срок или в последний час перед сроком; фигурными скобками обозначены явления, наблюдавшиеся между сроками (за 1-3 часа до срока); квадратными скобками обозначены град или гололедные отложения с указанием их диаметра в мм.
Облачность - указаны через наклонную черту общая и нижняя облачность в баллах и высота нижней границы облаков в метрах; квадратными скобками обозначены формы облаков: Ci - перистые, Cs - перисто-слоистые, Cc - перисто-кучевые, Ac - высококучевые, As - высокослоистые, Sc - слоисто-кучевые, Ns - слоисто-дождевые, Cu - кучевые, Cb - кучево-дождевые. Подробнее классификацию облаков см. в Атласе облаков (PDF).
T - Температура воздуха - температура, измеренная на высоте 2 м над землей.
Td - Температура точки росы - температура, при понижении до которой содержащийся в воздухе водяной пар достигнет насыщения.
f - Относительная влажность воздуха - влажноcть воздуха, измеренная на высоте 2 м над землей.
Te - Эффективная температура - температура, которую ощущает одетый по сезону человек в тени. Характеристика душности погоды. При расчете учитывается влияние влажности воздуха и скорости ветра на теплоощущения человека.
Tes - Эффективная температура на солнце - температура, которую ощущает человек, с поправкой на солнечный нагрев. Характеристика знойности погоды. Зависит от высоты солнца над горизонтом, облачности и скорости ветра. Ночью, в пасмурную погоду, а также при ветре 12 м/с и более поправка равна нулю.
P - Атмосферное давление - приведенное к уровню моря атмосферное давление.
Po - Атмосферное давление - измеренное на уровне метеостанции атмосферное давление.
Tmin - Минимальная температура - минимум температуры воздуха на высоте 2 м над землей.
Tmax - Максимальная температура - максимум температуры воздуха на высоте 2 м над землей.
R - Количество осадков - Количество выпавших осадков за период времени, мм. При наведении курсора мыши на число - период времени, за который выпало указанное количество осадков.
R24 - Количество осадков - Количество выпавших осадков за 24 часа, мм.
S - Снежный покров - Высота снежного покрова, см. При наведении курсора мыши на число - состояние снежного покрова и степень покрытия местности в баллах.